Terminal Aerodrome Forecast
Issued by NWS

Home | Current Version | Previous Version | Text Only | Print | Product List | Glossary On
Versions: 1 2 3 4 5 6 7 8 9 10 11 12 13 14 15 16
000
FTUS46 KPDT 202008 AAA
TAFPSC
TAF AMD
KPSC 202008Z 2020/2118 23008KT P6SM -SHRA SCT040 OVC080
      TEMPO 2020/2022 6SM -RA SCT013 BKN028 OVC050
     FM202200 23011KT P6SM -SHRA BKN070
     FM210200 21007KT P6SM BKN070
     FM211100 VRB04KT P6SM SCT040 BKN060=

USA.gov is the U.S. government's official web portal to all federal, state and local government web resources and services.